Upstream stations:
Downstream station:
SHEF ID: SDFO2 Deep Fork River at Stroud
STATION TYPE:
PRECIP STAGE RIV-FLOW VOLTAGE BAT-LOAD
in ft cfs volt volt
Ccp-Rev Ccp-Rev Ccp-Rev Ccp-Rev Ccp-Rev
(US/Central)
03/13 00:00 0.00 12.25 221 12.81 12.65
03/13 01:00 0.00 12.25 221 12.73 12.65
03/13 03:00 0.00 12.26 222 12.73 12.65
03/13 04:00 0.00 12.26 222 12.73 12.65
03/13 05:00 0.00 12.27 222 12.73 12.57
03/13 06:00 0.00 12.27 222 12.65 12.57
03/13 07:00 0.00 12.26 222 12.65 12.57
03/13 08:00 0.00 12.26 222 12.65 12.57
03/13 09:00 0.00 12.26 222 12.97 12.73
03/13 10:00 0.00 12.25 221 13.53 13.21
03/13 11:00 0.00 12.25 221 13.44 13.29
03/13 12:00 0.00 12.25 221 13.44 13.21
03/13 13:00 0.00 12.24 220 14.24 13.05
03/13 14:00 0.00 12.24 220 14.16 13.05
03/13 15:00 0.00 12.24 220 14.24 12.97
03/13 16:00 0.00 12.23 220 13.68 12.97
03/13 17:00 0.00 12.23 220 13.44 12.97
03/13 18:00 0.00 12.22 219 13.76 12.97
03/13 19:00 0.00 12.21 218 ---- ----
03/13 20:00 0.00 12.21 218 12.89 12.81
03/13 21:00 0.00 12.22 219 12.89 12.81
03/13 22:00 0.00 12.22 219 12.89 12.73
03/13 23:00 ---- ---- ---- ---- ----